This demonstration page uses our WeatherBlox Daily Observations layout. Learn more.

Left ArrowRight Arrow

44.89941, -97.11507

Hourly Observations for February 2, 2021

Temp ( °F °C ) Dew Point ( °F °C ) Humidity (%) Winds ( mph kmh ) Pressure ( in mb ) Visibility ( mi km ) Precip ( " mm )
12:53 am 00:53 Cloudy with Mist and Fog 17 -8.3 17 -8.3 100 100 SSE 8 13 30.27 1025 1 1 0.00 0.00
1:26 am 01:26 Cloudy with Mist and Fog 17 -8.3 16 -8.9 95 95 SSE 7 11 30.32 1027 1 2 0.00 0.00
1:49 am 01:49 Cloudy with Mist and Fog 18 -8 16 -9 93 93 SSE 9 15 30.31 1026 2 3 0.00 0.00
1:53 am 01:53 Cloudy with Mist and Fog 17 -8.3 16 -8.9 95 95 SSE 8 13 30.26 1025 3 4 0.00 0.00
2:00 am 02:00 Cloudy with Mist and Fog 17 -8.3 16 -8.9 95 95 SSE 7 11 30.31 1026 3 5 0.00 0.00
2:06 am 02:06 Cloudy with Mist and Fog 17 -8.3 16 -8.9 95 95 SSE 9 15 30.31 1026 2 3 0.00 0.00
2:32 am 02:32 Cloudy with Mist and Fog 17 -8.3 16 -8.9 95 95 SE 10 17 30.30 1026 2 3 0.00 0.00
2:45 am 02:45 Partly Cloudy with Mist and Fog 17 -8.3 15 -9.4 92 92 SE 8 13 30.30 1026 3 5 0.00 0.00
2:53 am 02:53 Partly Cloudy with Mist and Fog 17 -8.3 15 -9.4 92 92 SE 7 11 30.25 1024 3 4 0.00 0.00
2:58 am 02:58 Mostly Cloudy with Mist and Fog 17 -8.3 15 -9.4 92 92 SE 7 11 30.30 1026 2 2 0.00 0.00
3:03 am 03:03 Mostly Cloudy with Mist and Fog 17 -8.3 15 -9.4 92 92 SE 8 13 30.30 1026 1 1 0.00 0.00
3:11 am 03:11 Mostly Cloudy with Mist and Fog 17 -8.3 15 -9.4 92 92 SE 9 15 30.30 1026 2 2 0.00 0.00
3:44 am 03:44 Cloudy with Mist and Fog 16 -8.9 15 -9.4 96 96 SE 8 13 30.31 1026 1 2 0.00 0.00
3:49 am 03:49 Mostly Cloudy with Mist and Fog 16 -9 16 -9 100 100 SE 10 17 30.30 1026 2 3 0.00 0.00
3:53 am 03:53 Mostly Cloudy with Mist and Fog 16 -8.9 15 -9.4 96 96 SE 10 17 30.24 1024 4 6 0.00 0.00
4:09 am 04:09 Mostly Cloudy with Mist and Fog 16 -8.9 14 -10 92 92 SE 7 11 30.30 1026 2 3 0.00 0.00
4:25 am 04:25 Mostly Cloudy with Mist and Fog 16 -8.9 14 -10 92 92 SSE 8 13 30.30 1026 3 5 0.00 0.00
4:37 am 04:37 Partly Cloudy 15 -9.4 14 -10 95 95 SE 8 13 30.29 1026 7 11 0.00 0.00
4:53 am 04:53 Clear 15 -9.4 13 -10.6 91 91 SE 8 13 30.23 1024 8 13 0.00 0.00
5:53 am 05:53 Clear 15 -9.4 13 -10.6 91 91 SE 7 11 30.22 1024 9 14 0.00 0.00
6:53 am 06:53 Clear 14 -10 11 -11.7 88 88 SSE 6 9 30.23 1024 10 16 0.00 0.00
7:53 am 07:53 Sunny 13 -10.6 11 -11.7 92 92 SE 6 9 30.23 1024 10 16 0.00 0.00
8:53 am 08:53 Sunny 15 -9.4 12 -11.1 88 88 SE 10 17 30.22 1023 10 16 0.00 0.00
9:44 am 09:44 Partly Cloudy 17 -8.3 13 -10.6 84 84 SSE 8 13 30.27 1025 10 16 0.00 0.00
9:53 am 09:53 Mostly Cloudy 17 -8.3 14 -10 88 88 SSE 14 22 30.22 1023 9 14 0.00 0.00
10:53 am 10:53 Cloudy with Mist and Fog 19 -7.2 17 -8.3 92 92 SSE 10 17 30.21 1023 5 8 0.00 0.00
11:29 am 11:29 Cloudy with Mist and Fog 21 -6.1 19 -7.2 92 92 SSE 13 20 30.24 1024 5 8 0.00 0.00
11:53 am 11:53 Cloudy with Mist and Fog 21 -6.1 20 -6.7 96 96 SSE 10 17 30.19 1022 5 8 0.00 0.00
12:53 pm 12:53 Cloudy with Mist and Fog 24 -4.4 21 -6.1 88 88 SSE 12 19 30.17 1022 5 8 0.00 0.00
1:53 pm 13:53 Cloudy with Mist and Fog 25 -3.9 22 -5.6 88 88 SSE 14 22 30.14 1021 6 10 0.00 0.00
2:53 pm 14:53 Cloudy 25 -3.9 23 -5 92 92 SSE 18 30 30.12 1020 7 11 0.00 0.00
3:53 pm 15:53 Cloudy 27 -2.8 23 -5 85 85 SSE 16 26 30.11 1020 9 14 0.00 0.00
4:17 pm 16:17 Mostly Cloudy 27 -2.8 24 -4.4 89 89 S 14 22 30.14 1021 10 16 0.00 0.00
4:53 pm 16:53 Mostly Cloudy 26 -3.3 23 -5 88 88 S 10 17 30.13 1020 10 16 0.00 0.00
5:41 pm 17:41 Partly Cloudy 24 -4.4 21 -6.1 88 88 S 9 15 30.14 1021 8 13 0.00 0.00
5:53 pm 17:53 Clear 24 -4.4 21 -6.1 88 88 S 9 15 30.11 1020 8 13 0.00 0.00
6:53 pm 18:53 Mostly Clear 23 -5 20 -6.7 88 88 SSE 9 15 30.11 1020 9 14 0.00 0.00
7:53 pm 19:53 Clear 22 -5.6 20 -6.7 92 92 SSE 12 19 30.10 1019 8 13 0.00 0.00
8:41 pm 20:41 Mostly Cloudy 23 -5 21 -6.1 92 92 SSE 14 22 30.11 1020 8 13 0.00 0.00
8:53 pm 20:53 Cloudy 24 -4.4 21 -6.1 88 88 SSE 15 24 30.07 1018 8 13 0.00 0.00
9:53 pm 21:53 Cloudy with Mist and Fog 24 -4.4 22 -5.6 91 91 S 18 30 30.05 1018 4 6 0.00 0.00
10:38 pm 22:38 Cloudy with Mist and Fog 23 -5 23 -5 100 100 S 14 22 30.10 1019 3 4 0.00 0.00
10:53 pm 22:53 Cloudy with Mist and Fog 23 -5 23 -5 100 100 S 12 19 30.06 1018 3 5 0.00 0.00
11:17 pm 23:17 Cloudy with Mist and Fog 23 -5 23 -5 100 100 S 17 28 30.09 1019 3 4 0.00 0.00
11:53 pm 23:53 Cloudy with Light Snow 23 -5 23 -5 100 100 S 12 19 30.04 1017 2 3 0.00 0.00

Powered by AerisWeather